Home > Weather > Wolfenbüttel > Past weeks

Flag for Germany Past Weather in Wolfenbüttel, Lower Saxony, Germany — Yesterday and Last 2 Weeks

Now
64 °F

Passing clouds.


Feels Like: 64 °F
Forecast: 51 / 66 °F
Wind: 8 mph from South

Location: Celle Airport

Current Time: Jul 2, 2016 at 4:12:15 AM

Latest Report: Jul 2, 2016 at 3:20 AM


Visibility: N/A

Pressure: 29.80 "Hg

Humidity: 78%

Dew Point: 57 °F

Location of WolfenbüttelLocation

Past Weather in Wolfenbüttel — Graph

°F

Wolfenbüttel Temperature Yesterday

Maximum temperature yesterday: 73 °F (at 1:20 PM)
Minimum temperature yesterday: 61 °F (at 4:20 AM)
Average temperature yesterday: 68 °F

High & Low Weather Summary for the Past Weeks

 TemperatureHumidityPressure
High90 °F (Jun 23, 4:20 PM)100% (Jun 18, 5:20 AM)30.24 "Hg (Jun 18, 5:20 AM)
Low46 °F (Jun 20, 5:20 AM)38% (Jun 23, 7:20 PM)29.56 "Hg (Jun 17, 4:20 AM)
Average64 °F76%29.99 "Hg
* Reported Jun 17 2:20 AM — Jul 2 2:20 AM, Wolfenbüttel, Weather by CustomWeather, © 2016

Note: Actual official high and low records may vary slightly from our data, if they occured in-between our weather recording intervals... More about our weather records

Advertising

Wolfenbüttel Weather History for the Previous 24 Hours

Scroll right to see more
 ConditionsComfort  
Time TempWeatherWind HumidityBarometerVisibility
2:20 AM
Sat, Jul 2
64 °FPassing clouds.7 mph78%29.83 "HgN/A
1:20 AM64 °FPartly cloudy.7 mph78%29.83 "HgN/A
12:20 AM66 °FPassing clouds.6 mph73%29.86 "HgN/A
11:20 PM
Fri, Jul 1
66 °FPassing clouds.3 mph83%29.86 "HgN/A
10:20 PM68 °FBroken clouds.6 mph73%29.86 "HgN/A
9:20 PM70 °FBroken clouds.2 mph73%29.89 "HgN/A
8:20 PM72 °FPartly sunny.9 mph65%29.89 "HgN/A
7:20 PM72 °FBroken clouds.9 mph65%29.89 "HgN/A
6:20 PM72 °FBroken clouds.8 mph69%29.89 "HgN/A
5:20 PM72 °FBroken clouds.9 mph65%29.89 "HgN/A
4:20 PM72 °FBroken clouds.7 mph65%29.89 "HgN/A
3:20 PM72 °FBroken clouds.10 mph65%29.92 "HgN/A
2:20 PM72 °FBroken clouds.12 mph65%29.92 "HgN/A
1:20 PM73 °FBroken clouds.14 mph61%29.92 "HgN/A
12:20 PM72 °FBroken clouds.10 mph65%29.92 "HgN/A
11:20 AM70 °FBroken clouds.12 mph69%29.92 "HgN/A
10:20 AM70 °FBroken clouds.12 mph69%29.92 "HgN/A
9:20 AM68 °FPartly sunny.8 mph73%29.92 "HgN/A
8:20 AM66 °FBroken clouds.8 mph78%29.92 "HgN/A
7:20 AM64 °FBroken clouds.7 mph83%29.92 "HgN/A
6:20 AM61 °FPartly sunny.5 mph88%29.89 "HgN/A
5:20 AM61 °FPassing clouds.5 mph88%29.89 "HgN/A
4:20 AM61 °FPassing clouds.5 mph88%29.89 "HgN/A
Weather by CustomWeather, © 2016

See weather overviewHow to use our weather pages